Regional Weather Roundup
Issued by NWS

Home | Current Version | Previous Version | Graphics & Text | Print | Product List | Glossary On
Versions: 1 2 3 4 5 6 7 8 9 10 11 12 13 14 15 16 17 18 19 20 21 22 23 24 25 26 27 28 29 30 31 32 33 34 35 36 37 38 39 40 41 42 43 44 45 46 47 48 49 50
000
ASUS45 KBOI 301410
RWRID
WEATHER ROUNDUP FOR IDAHO
NATIONAL WEATHER SERVICE BOISE ID
700 AM MST FRI JAN 30 2015

NOTE: "FAIR" INDICATES FEW OR NO CLOUDS BELOW 12000 FEET
WITH NO SIGNIFICANT WEATHER AND/OR OBSTRUCTIONS TO VISIBILITY

IDZ012-014-301500-
SOUTHWEST IDAHO


CITY           SKY/WX    TMP DP  RH WIND       PRES   REMARKS
BOISE          CLEAR     29  26  89 CALM      30.27F
CALDWELL       CLOUDY    30  25  80 W6        30.30F WCI  24
MOUNTAIN HOME  CLEAR     32  30  93 NW3       30.25F
$$

IDZ016-017-301500-
SOUTHCENTRAL IDAHO


CITY           SKY/WX    TMP DP  RH WIND       PRES   REMARKS
BURLEY         CLOUDY    31  29  92 CALM      30.21F
JEROME         CLOUDY    33  29  85 CALM      30.23S
TWIN FALLS     CLOUDY    34  30  85 CALM      30.22S
$$

IDZ019>023-301500-
SOUTHEAST IDAHO


CITY           SKY/WX    TMP DP  RH WIND       PRES   REMARKS
IDAHO FALLS    MOCLDY    29  25  85 N7        30.22F WCI  22
POCATELLO      CLEAR     28  28 100 CALM      30.21F
REXBURG        MOCLDY    23  19  85 NE6       30.23F WCI  16
$$

IDZ006-010-011-018-031-032-301500-
CENTRAL IDAHO MOUNTAINS


CITY           SKY/WX    TMP DP  RH WIND       PRES   REMARKS
MCCALL         HAZE      22  16  78 CALM      30.23F VSB 1/2
HAILEY         PTCLDY    27  19  74 NW9       30.23F WCI  17
STANLEY          N/A     10   5  80 CALM      30.29S
SALMON         CLOUDY    25  21  86 CALM      30.37S
CHALLIS        CLOUDY    26  20  77 NW8       30.32S WCI  18
$$

IDZ002-004-006-007-026-301500-
NORTHERN IDAHO


CITY           SKY/WX    TMP DP  RH WIND       PRES   REMARKS
LEWISTON       CLOUDY    37  37 100 S3        30.38S FOG
LOWELL           N/A     31  28  89 SW3       30.42S
COEUR D`ALENE  CLOUDY    30  27  86 N6        30.36R WCI  24
MULLAN PASS    CLEAR     29  20  69 S3        30.24S
$$


USA.gov is the U.S. government's official web portal to all federal, state and local government web resources and services.